CZ-6A DEB

Satellite information

Favourite Embed

Satellite Type and Status

DEBRISIN ORBIT

Key statistics

Satellite CZ-6A DEB at a glance.

Uptime

1128

Days in orbit

Revolutions

≈ 14.8

Per day

Orbit

SSO

Sun Synchronous Orbit

Inclination

98.7

Latest

Satellite identification and parameters

Extended collection of information and parameters for CZ-6A DEB.

Object identification

Identified? True

Debris? True

Object name: CZ-6A DEB

International designator: 2022-151YG

Object number (NORAD): 55534

Object ID (CCSDS): 55534

Country: PEOPLES REPUBLIC OF CHINA (PRC)

Current information (Y/N): Y

RCS size: SMALL

Orbital parameters

Period: 97.085 minutes

Inclination: 98.6612 deg

SMA: 6997.276 km

Apoapsis: 660.451 km

Periapsis: 577.831 km

RAAN: 47.5998 deg

Eccentricy: 0.00590371

Argument of periapsis: 120.2681 deg

Mean anomaly: 240.4391 deg

Mean motion: 14.83232595 rev/day

Mean motion (dot): 0.00050375 rev/day2

B* drag term: 0.0059456621 1/REarth

Two-line elements (TLE)

Creation date: Dec. 11, 2025, 10:54 a.m.

Reference frame: TEME

Reference center: EARTH

Epoch: Dec. 11, 2025, 2:47 a.m. UTC

TLE line 0: 0 CZ-6A DEB

TLE line 1: 1 55534U 22151YG 25345.11612431 .00050375 00000-0 59457-2 0 9993

TLE line 2: 2 55534 98.6612 47.5998 0059037 120.2681 240.4391 14.83232595158056

Live tracking on map

Real-time ground track for satellite CZ-6A DEB.

In-orbit conjunctions

A list of the most updated potential collisions computed for object CZ-6A DEB.

Target Orbit TCA Probability of collision Miss distance Type
SL-8 R/B LEO 2025-01-12 19:12:54 0.0005864128 132.0 (m) ROCKET BODY
SL-14 R/B LEO 2024-12-31 12:34:21 0.0001292546 752.0 (m) ROCKET BODY
SL-14 R/B LEO 2024-11-15 13:12:23 0.0002023911 355.0 (m) ROCKET BODY

Associated space launch

Chinese satellite reported for atmospheric/ocean/environmental/spatial parameter research purposes, details TBD.

CZ-6A DEB was lifted into orbit during the mission ‘Long March 6A | Yunhai 3’, on board a Long March 6A space rocket.

The launch took place on Nov. 11, 2022, 10:52 p.m. from Launch Complex 9A.

For more information about the launch, click the button.

Launch to space Long March 6A | Yunhai 3
Long March 6A | Yunhai 3

Agency: N/A

Status: Launch Successful

Launch date: Nov. 11, 2022, 10:52 p.m. UTC

Rocket: Long March 6A

Launch pad: Launch Complex 9A

Location: Taiyuan Satellite Launch Center, People's Republic of China

...

Latest news about this satellite

There are no fresh news available about this satellite. Check back as we update our databases every day.


Newsletter sign-up

Weekly statistics, charts and insights to help you stay on top of the space industry.